Regional Weather Roundup
Issued by NWS

Current Version | Previous Version | Text Only | Print | Product List | Glossary On
Versions: 1 2 3 4 5 6 7 8 9 10 11 12 13 14 15 16 17 18 19 20 21 22 23 24 25 26 27 28 29 30 31 32 33 34 35 36 37 38 39 40 41 42 43 44 45 46 47 48 49 50
000
ASUS44 KLIX 252312
RWRLA
LOUISIANA WEATHER ROUNDUP
NATIONAL WEATHER SERVICE NEW ORLEANS LA
600 PM CDT MON MAY 25 2015

NOTE: "FAIR" INDICATES FEW OR NO CLOUDS BELOW 12,000 FEET WITH NO
      SIGNIFICANT WEATHER AND/OR OBSTRUCTIONS TO VISIBILITY.
      SKY/WX - SKY CONDITION AND SIGNIFICANT WEATHER.
      TMP - AIR TEMPERATURE.    DP   - DEWPOINT TEMPERATURE.
      RH  - RELATIVE HUMIDITY.  PRES - PRESSURE.
      HX  - HEAT INDEX.         WCI  - WIND CHILL INDEX.

*  THESE STATIONS ARE NOT NWS OR FAA STATIONS AND ARE NOT UNDER
   NWS QUALITY CONTROL.

LAZ040-048-061>063-065-066-069-260000-
SOUTHEAST LOUISIANA

CITY           SKY/WX    TMP DP  RH WIND       PRES   REMARKS
N.O. AUDUBON     N/A     78  71  79 MISG        N/A
N.O. INTL ARPT TSTM      76  70  82 N5        30.02F
N.O. LAKEFRONT PTSUNNY   78  68  71 E22G28    30.03S
SLIDELL        CLOUDY    76  71  85 S7        30.03F
BATON ROUGE    PTSUNNY   76  71  85 SE12G24   30.00F
BOOTHVILLE     PTSUNNY   83  77  82 SE12      30.03F
BELLE CHASSE   PTSUNNY   78  71  79 E9        30.01F THUNDER
BOGALUSA*        N/A     75  70  84 SE5       30.05S
GALLIANO*      MOCLDY    86  74  66 MISG      30.00F
NEW ROADS*     LGT RAIN  75  71  88 E10       29.99S
GONZALES*      MOCLDY    73  73  99 NE5       29.99F
HAMMOND*       CLOUDY    72  68  88 CALM      30.03F
HOUMA*         PTSUNNY   82  75  78 SE14      29.99F
PORT FOURCHON* PTCLDY    84  77  79 SE14G23   30.00F

$$

LAZ041-044-053-054-260000-
SOUTHWEST LOUISIANA

CITY           SKY/WX    TMP DP  RH WIND       PRES   REMARKS
LAKE CHARLES   MOSUNNY   83  74  74 S12G25    29.89F
LAFAYETTE      PTSUNNY   85  73  67 S9G23     29.93F
PATTERSON      MOSUNNY   84  73  70 S14G20    29.97F
SALT POINT       N/A     84  77  79 SE7       29.94F
NEW IBERIA     MOSUNNY   86  75  69 SE17G25   29.95S HX  95
CHENAULT AIRPK MOSUNNY   84  73  70 S17G23    29.90

$$

LAZ027-028-260000-
CENTRAL LOUISIANA

CITY           SKY/WX    TMP DP  RH WIND       PRES   REMARKS
FORT POLK      NOT AVBL
ALEXANDRIA INT MOSUNNY   82  74  76 SE12      29.90S
ALEXANDRIA     PTSUNNY   78  69  73 E16G28    29.94R

$$

LAZ001-002-260000-
NORTHWEST LOUISIANA

CITY           SKY/WX    TMP DP  RH WIND       PRES   REMARKS
SHREVEPORT     CLOUDY    83  73  72 SE7       29.87S
BARKSDALE AFB  NOT AVBL
DTN SHREVEPORT CLOUDY    81  71  71 VRB7      29.88R

$$

LAZ014-016-260000-
NORTHEAST LOUISIANA

CITY           SKY/WX    TMP DP  RH WIND       PRES   REMARKS
MONROE         CLOUDY    84  73  69 E8        29.93F
TALLULAH       LGT RAIN  73  69  87 S5        30.00F

$$



USA.gov is the U.S. government's official web portal to all federal, state and local government web resources and services.